Theta_e
293 294 294 294 294 294 293 294 294 293 292 291 290 290 290 289 289 289 289 289 289 289 289 289 289 288 287 286 286 286 285 285 286 287 288 286 285 284 284 284 284 284 284 284 284 284 284 284 284 286 287 287 286 285 285 285 284 284 284 284 284 284 283 283 283 283 283 283 284
292 293 294 295 295 294 293 293 293 292 292 291 290 290 289 290 289 289 289 288 289 289 289 289 288 287 286 286 286 286 285 286 285 286 286 285 284 284 284 284 283 284 284 284 283 284 284 283 284 285 286 286 286 285 285 285 284 284 284 283 284 284 284 284 284 284 283 284 284
290 290 291 291 291 291 291 291 290 289 289 289 290 289 290 290 290 289 289 288 287 287 288 288 287 286 286 285 285 285 285 286 285 285 284 284 284 284 284 283 283 284 284 284 283 283 283 283 284 286 287 286 285 284 285 285 285 284 284 283 284 285 285 286 285 284 285 285 284
289 289 289 289 289 289 289 290 289 288 288 289 288 288 289 289 289 289 288 287 286 287 287 286 285 285 285 285 285 285 285 287 287 285 284 284 284 284 284 283 283 283 283 283 282 282 282 282 284 285 285 284 283 284 284 285 284 284 284 284 285 285 285 286 285 285 286 285 284
289 289 289 289 288 288 288 288 288 288 288 288 288 288 289 288 288 288 287 287 287 287 286 285 285 285 285 285 285 285 285 285 287 286 284 284 284 284 283 283 283 283 283 282 282 282 282 282 284 285 285 284 284 284 284 283 283 283 284 285 285 285 285 285 285 285 285 285 285
288 288 288 288 288 288 288 287 287 287 287 287 287 287 287 288 288 287 287 287 287 286 286 287 287 287 287 285 284 284 284 284 284 284 283 283 283 283 283 283 283 282 282 282 282 282 282 282 284 285 285 285 284 284 283 283 283 283 284 284 285 285 285 284 285 285 285 284 284
288 288 287 287 287 287 287 287 287 287 287 287 286 286 286 286 286 286 286 286 286 287 287 288 287 286 285 284 284 283 283 283 283 283 283 283 283 283 283 282 282 282 282 282 282 282 281 281 284 285 286 286 286 284 283 282 283 283 283 283 284 284 284 283 284 284 284 283 283
288 287 287 286 286 286 286 287 287 287 287 287 286 286 286 285 285 285 286 286 286 286 286 286 285 284 283 283 283 283 283 283 283 282 282 283 282 282 282 282 282 282 282 281 281 281 281 282 284 284 284 284 285 284 283 282 281 282 282 282 283 284 283 283 283 283 283 283 282
287 287 287 286 286 286 286 286 286 286 286 286 286 286 286 286 285 285 286 286 286 286 286 285 284 283 283 283 282 282 282 282 282 282 282 282 282 282 282 282 282 281 281 281 281 281 281 282 283 283 283 284 284 284 282 281 281 281 281 282 283 283 283 282 282 282 282 282 282
287 287 286 286 286 286 286 286 286 286 286 286 286 287 288 289 287 286 286 286 286 285 284 284 283 283 283 282 282 282 282 282 282 282 282 282 283 282 282 281 281 281 281 281 281 281 281 282 282 282 282 282 282 282 281 281 281 281 281 283 282 282 281 282 282 282 282 282 282
286 286 286 286 286 287 287 287 287 287 287 286 286 286 287 287 286 286 286 285 284 284 283 283 283 282 282 282 282 282 282 282 282 281 282 282 282 282 281 281 281 281 281 281 281 281 281 282 282 281 281 281 281 281 281 281 281 280 281 281 281 281 281 281 281 282 282 282 282
286 286 286 286 286 286 287 287 287 287 287 286 286 285 285 285 285 285 285 284 284 283 283 283 282 282 282 282 282 282 283 282 281 281 281 281 281 281 281 281 281 281 281 281 281 281 281 281 281 281 281 281 281 282 282 281 281 280 280 280 280 281 281 281 282 282 282 282 282
286 286 286 286 286 286 286 286 286 286 286 286 285 285 285 284 285 285 284 283 284 283 283 282 283 283 282 282 282 282 281 281 281 281 281 281 281 281 281 281 281 281 281 281 281 281 281 281 281 281 281 281 282 282 282 281 280 280 280 280 280 281 281 281 282 282 282 282 282
286 286 286 286 286 286 286 286 286 287 286 286 285 284 284 284 285 285 284 283 283 282 282 282 283 283 283 282 282 282 282 281 281 281 281 282 281 281 281 281 281 281 281 281 281 281 281 281 281 281 281 281 281 281 281 280 280 280 280 280 281 281 281 281 282 282 282 282 282
285 285 285 285 286 286 286 286 287 287 286 286 285 284 284 283 284 284 284 282 282 282 282 282 282 283 283 283 282 282 282 281 281 281 281 281 281 281 281 281 281 281 281 281 281 281 281 281 281 281 281 281 281 281 281 280 280 280 280 280 281 281 281 282 282 282 282 282 282
285 285 285 285 286 286 286 287 287 287 286 285 284 284 283 283 283 284 284 283 282 282 282 282 282 281 282 283 283 282 282 281 281 281 281 281 281 281 281 281 281 281 281 281 281 281 281 281 281 281 281 281 281 281 281 280 280 280 280 281 281 281 281 282 282 282 282 282 282
285 285 285 285 286 286 286 286 287 286 285 284 284 284 283 283 283 284 284 284 282 282 282 282 281 281 281 282 283 282 282 281 281 281 281 281 281 281 281 281 281 281 281 281 281 281 281 281 281 281 281 281 281 281 281 280 281 281 281 281 281 281 281 282 282 282 282 282 282
285 285 285 285 285 286 286 287 286 285 284 284 283 283 283 283 283 283 284 284 282 282 282 282 281 281 281 281 281 282 282 281 281 281 281 281 281 281 281 281 282 281 281 281 281 281 281 281 281 281 281 281 281 281 281 281 281 281 281 281 281 281 281 282 282 282 282 282 282
284 284 285 285 285 286 287 287 285 284 284 283 283 282 282 282 282 282 282 282 283 282 282 281 281 281 281 281 280 281 282 282 281 281 281 281 281 281 281 281 282 281 281 281 281 281 281 281 281 281 281 281 281 281 281 281 282 282 282 281 281 281 282 281 282 282 282 282 282
284 284 284 285 285 286 287 286 285 284 283 283 282 282 282 282 282 282 282 282 283 282 281 281 281 281 281 280 280 281 281 282 281 281 281 281 281 281 281 281 281 281 281 281 281 281 281 281 281 281 281 282 282 282 282 282 282 282 282 282 281 281 281 282 282 282 282 282 282
283 284 284 285 286 286 286 285 284 283 283 283 282 282 282 282 282 282 282 282 282 282 281 281 281 281 280 280 280 280 281 282 281 281 281 281 281 281 282 282 281 281 281 281 281 281 281 281 281 282 282 282 282 282 282 282 282 282 281 282 282 281 281 281 281 282 282 282 282
283 284 285 286 287 286 285 284 284 283 283 282 282 282 282 282 282 281 282 282 281 281 281 281 280 280 280 280 280 280 280 281 281 281 281 281 281 282 282 282 281 281 281 281 281 281 281 282 282 282 282 283 283 282 283 283 282 282 281 281 281 281 281 281 281 282 281 282 282
283 284 285 287 287 287 286 284 283 283 282 282 282 282 282 282 282 281 281 281 281 281 281 280 280 280 280 280 280 280 280 280 280 280 280 280 281 281 281 281 281 281 281 281 281 281 282 283 283 283 283 283 283 283 283 282 282 282 281 281 281 281 281 281 281 281 281 281 282
284 285 287 287 287 286 285 284 283 283 282 282 282 282 282 282 281 281 281 280 281 280 280 280 280 280 280 280 280 280 280 280 280 280 280 280 281 281 281 281 281 281 281 282 283 284 285 286 286 285 285 285 284 284 284 283 282 281 281 281 281 281 281 281 281 281 281 281 282
285 286 287 287 286 285 284 283 283 282 282 282 282 282 281 281 281 281 280 280 280 280 280 279 279 279 280 280 280 280 280 280 280 280 280 281 281 281 281 282 282 282 282 284 288 290 291 290 289 288 287 286 285 285 284 283 282 282 281 281 281 281 281 281 281 281 281 281 282
286 287 287 286 285 284 283 283 282 282 282 282 281 281 281 281 281 280 280 280 280 279 279 279 279 280 281 281 280 280 280 280 280 280 280 281 281 281 281 282 283 282 283 286 289 291 292 292 292 291 289 287 286 285 284 283 282 282 281 281 281 281 281 281 281 281 281 282 282
287 287 286 285 284 283 283 282 282 281 281 281 281 281 280 280 280 279 279 279 279 279 279 279 279 281 283 281 280 280 280 280 280 280 280 281 281 281 281 282 282 283 284 288 290 291 292 292 292 292 290 288 286 285 284 284 282 282 281 281 281 281 280 280 280 281 281 282 281
287 286 285 284 283 283 282 281 281 281 281 281 280 280 280 279 279 279 279 279 279 278 279 279 280 281 281 280 280 280 280 280 280 280 281 280 280 280 281 282 282 283 286 289 290 291 291 292 292 292 291 289 287 285 284 283 283 282 281 281 281 280 280 280 281 281 281 281 281
286 285 284 283 283 282 281 281 281 281 280 280 280 280 279 279 279 279 278 278 278 279 279 280 281 281 280 280 280 280 280 280 280 280 280 280 280 280 281 281 281 283 286 290 291 291 291 291 291 292 291 291 288 286 285 284 283 282 281 281 281 280 281 281 281 281 281 281 281
285 284 283 282 282 281 281 281 280 280 280 279 279 279 279 279 278 278 278 278 279 279 280 280 280 280 280 280 280 280 280 280 281 280 280 280 280 281 281 282 282 283 286 290 290 291 291 291 291 291 291 291 289 287 285 283 282 281 281 281 280 281 281 281 281 281 281 282 281
284 283 282 282 281 281 281 280 280 279 279 279 279 279 278 278 278 278 279 279 279 280 281 281 280 280 279 280 280 280 280 280 280 280 280 280 281 282 281 281 281 283 286 289 290 290 291 291 291 291 291 291 289 287 285 283 282 281 281 281 281 281 281 281 281 282 282 282 281
283 282 282 281 281 280 280 279 279 279 278 278 278 278 278 278 278 278 278 279 280 280 280 280 280 279 279 279 280 280 280 280 280 280 281 281 281 280 280 281 281 283 286 289 290 290 290 290 290 290 291 291 289 287 284 282 281 281 281 281 281 281 281 281 282 282 282 282 281
282 282 281 281 281 280 279 279 278 278 278 278 278 278 278 278 278 278 278 279 280 280 279 279 279 279 279 279 280 280 280 280 281 281 282 281 280 280 280 281 281 283 287 289 290 290 290 290 290 290 290 290 289 286 283 281 281 282 282 283 283 283 283 282 281 281 281 281 281
282 282 281 280 280 279 278 278 278 278 278 278 278 278 278 277 278 278 278 280 280 280 279 280 279 279 279 279 279 279 280 282 281 281 280 280 280 280 280 281 281 284 287 289 289 290 290 290 290 290 290 290 288 285 282 280 281 282 283 283 283 283 283 282 281 281 280 280 280
282 281 280 279 278 278 278 278 277 277 278 278 277 277 277 277 278 278 279 281 281 280 279 279 279 279 279 279 279 279 280 281 280 280 280 280 280 280 280 280 281 284 287 289 289 289 289 289 290 290 290 289 286 284 282 282 282 282 282 282 282 283 282 281 281 281 280 281 281
280 279 279 278 278 277 277 277 277 277 277 277 277 277 277 277 277 278 279 281 281 280 279 279 279 279 279 279 279 280 280 280 280 280 280 281 281 280 280 280 280 283 286 288 288 289 289 289 289 289 289 288 285 284 284 284 284 283 282 281 282 282 282 281 281 281 281 281 281
279 278 278 278 277 277 277 277 277 277 277 277 277 277 277 277 277 278 279 281 279 279 278 278 278 278 278 279 279 279 280 279 280 280 280 281 281 280 280 280 280 282 285 287 288 288 289 289 289 289 289 286 285 285 285 285 284 284 283 281 281 282 281 281 281 281 281 281 281
278 278 278 278 278 277 277 277 277 277 277 277 276 277 277 277 277 278 279 281 279 278 278 278 278 278 278 279 279 279 279 280 280 280 280 280 280 280 280 280 280 281 283 286 287 288 288 289 289 289 288 286 285 285 285 284 283 283 282 281 281 281 281 282 282 282 281 281 283
278 278 278 278 277 277 277 277 277 277 277 277 276 276 277 277 277 278 279 281 279 278 278 278 278 278 279 280 280 280 280 279 280 280 280 279 280 281 281 281 280 280 282 285 287 288 288 289 289 289 289 287 286 285 284 283 283 282 282 281 281 281 281 282 282 282 282 281 284
278 278 277 277 277 277 277 277 277 277 276 276 276 276 277 277 278 280 280 279 278 278 278 278 278 279 280 281 281 280 279 279 279 279 280 280 280 282 283 281 279 279 281 284 286 288 288 288 289 289 288 287 286 285 284 283 282 282 281 281 282 282 282 282 282 282 281 281 283
277 277 278 277 277 277 277 277 277 276 276 276 276 277 278 279 279 279 279 278 278 278 278 279 279 279 280 281 281 280 279 279 279 279 279 280 280 281 281 280 279 278 279 282 286 287 288 288 288 288 288 287 285 284 284 283 282 281 281 281 281 282 282 282 282 281 281 282 283
Wind_Speed
6 6 6 5 5 5 4 4 4 4 4 4 3 3 3 3 3 3 3 3 2 2 2 1 1 1 1 2 2 2 3 3 3 3 3 3 3 2 2 2 2 2 2 2 2 2 2 2 2 2 2 2 2 3 3 3 3 3 4 4 4 4 4 5 6 6 6 6 5
6 6 6 6 6 5 4 4 4 4 4 3 3 3 3 3 3 3 3 2 2 2 2 1 1 2 2 2 2 2 2 3 3 3 3 3 3 2 2 2 2 2 2 2 2 2 2 2 2 2 3 3 3 3 3 3 3 3 4 4 4 4 4 5 6 6 6 6 5
6 6 6 5 5 5 4 4 4 4 4 3 3 3 3 3 3 3 3 2 2 2 2 1 1 2 2 2 2 2 2 2 3 3 3 3 3 3 3 2 2 2 2 2 2 2 2 2 2 2 3 3 3 3 4 4 3 3 4 5 4 4 4 5 5 5 5 5 6
6 6 6 6 6 6 5 4 4 4 3 3 3 3 2 2 2 2 2 2 2 2 2 1 1 1 2 2 2 2 2 2 3 3 3 3 3 3 3 2 3 3 2 2 2 2 2 2 2 2 3 3 3 3 4 3 3 3 3 4 4 4 4 5 5 5 5 5 6
6 5 5 5 6 5 4 4 4 4 3 3 3 3 3 2 2 2 2 2 2 2 1 1 1 1 1 2 2 2 3 3 3 3 3 3 3 3 3 3 3 3 3 2 2 2 2 2 2 2 2 3 3 3 4 4 4 4 4 4 4 4 4 5 5 5 5 5 5
5 5 5 5 5 5 4 4 4 4 4 3 4 4 3 3 3 3 3 2 1 1 1 2 2 2 2 2 2 2 3 3 3 3 3 3 3 4 4 4 3 3 3 3 2 2 2 2 2 2 2 3 3 3 3 4 4 4 4 4 4 4 4 4 4 5 5 6 7
5 5 5 5 5 5 4 4 4 4 4 4 5 5 4 3 3 3 2 2 1 1 2 2 2 2 2 2 2 2 2 3 3 3 3 3 3 4 4 4 4 4 3 3 3 2 2 2 2 3 3 4 4 4 4 4 4 5 5 6 5 4 4 5 4 5 6 8 9
5 5 5 5 5 4 4 4 4 4 4 4 5 5 5 4 4 3 2 2 2 1 1 1 1 1 1 1 2 2 2 2 3 3 3 3 4 4 4 4 4 4 4 3 3 3 3 2 3 3 3 4 4 4 5 5 5 5 6 6 6 5 4 4 4 5 6 8 9
5 4 4 4 4 4 4 4 4 4 4 4 4 4 4 4 4 3 3 2 1 1 1 1 1 1 1 1 1 2 2 2 3 3 3 3 4 4 4 4 4 4 4 3 3 3 3 3 3 3 3 4 4 5 5 6 6 6 6 6 6 5 5 4 5 5 6 8 10
4 4 4 4 4 4 4 4 5 4 4 4 4 3 4 4 4 3 2 1 1 1 1 1 1 1 1 1 1 2 2 2 2 3 3 3 4 4 4 4 4 4 4 4 3 3 3 3 4 4 4 4 5 5 6 6 7 7 7 5 6 6 6 5 6 6 7 8 9
4 4 3 3 3 4 4 4 4 4 4 4 3 3 3 4 4 3 2 2 2 2 1 1 1 1 1 1 2 2 2 2 2 3 3 4 4 4 4 4 4 5 5 5 3 3 3 3 4 5 5 5 5 6 6 7 7 7 7 6 6 6 7 7 7 7 7 8 10
4 4 3 3 3 4 4 4 3 3 4 4 4 3 3 3 3 3 3 3 2 2 1 1 1 1 1 1 2 2 2 2 2 3 3 4 4 5 5 5 5 5 5 5 4 3 3 4 5 6 6 6 6 6 6 7 7 7 7 6 6 6 7 8 8 8 8 8 9
4 4 3 3 3 4 4 3 3 3 4 4 4 3 3 2 2 2 3 3 2 1 1 1 1 1 1 1 2 2 2 2 3 3 3 4 4 5 5 5 5 5 5 5 4 4 4 5 6 7 7 7 7 6 7 7 7 7 7 7 7 7 7 9 9 9 9 9 9
4 4 4 3 4 4 3 3 3 3 4 4 3 3 3 2 2 2 2 2 1 1 1 1 1 1 1 2 2 2 3 3 3 3 4 4 5 5 5 5 6 6 6 5 5 5 5 6 6 7 7 8 8 8 7 7 7 7 7 7 8 8 8 9 9 9 9 10 10
4 4 4 4 4 4 3 3 3 3 3 3 3 2 2 2 2 2 2 2 1 1 1 1 2 2 2 2 2 3 3 3 3 4 4 5 5 5 6 6 6 6 6 6 5 5 6 6 7 7 7 8 8 8 8 7 7 7 7 7 7 8 8 9 9 9 9 10 10
5 4 4 4 4 4 4 4 3 3 3 2 2 2 2 1 1 2 2 1 1 1 1 1 2 2 2 3 2 3 3 3 3 4 4 5 6 6 6 7 7 7 7 7 7 6 6 6 6 7 7 8 8 8 8 8 7 7 7 7 7 7 8 8 8 8 8 9 10
5 4 4 4 4 4 4 4 3 3 2 2 1 1 1 1 1 1 1 1 1 1 1 2 2 2 2 3 3 3 2 3 3 4 5 5 6 7 7 7 8 8 7 7 7 7 7 7 7 7 7 7 8 8 8 8 8 7 7 7 7 7 7 7 7 8 8 9 10
4 4 4 4 4 4 4 4 3 2 2 1 1 0 1 1 1 1 1 0 0 0 1 2 2 2 2 3 3 3 2 3 4 5 5 6 6 7 7 8 8 8 7 7 7 8 8 8 7 7 7 7 7 8 8 8 8 8 8 7 7 6 6 6 6 7 8 9 10
4 4 4 4 4 4 4 3 2 2 1 1 1 0 0 1 1 1 0 0 0 0 1 2 2 3 3 3 3 3 3 3 4 5 6 6 7 7 7 8 8 8 7 7 7 8 8 8 8 8 8 8 8 8 8 8 8 8 7 7 6 6 6 6 6 6 7 8 10
4 4 4 3 3 3 3 3 2 1 1 1 1 0 0 1 1 1 0 1 1 1 1 2 3 3 3 4 4 4 4 3 4 5 6 7 7 7 8 8 8 8 7 7 7 8 8 8 8 8 8 8 9 9 8 8 8 7 7 6 6 5 5 6 6 6 7 8 9
4 4 3 3 3 3 2 2 1 1 1 1 1 1 1 0 1 0 0 1 1 1 1 2 3 4 4 4 5 5 4 4 4 5 6 7 7 8 8 8 7 7 7 7 7 8 8 8 8 8 8 8 9 9 8 8 7 7 6 5 5 5 5 5 6 7 7 8 9
3 3 3 2 2 2 2 1 1 1 1 1 1 1 1 1 0 0 1 1 1 1 2 2 3 4 4 5 5 5 5 4 5 5 6 6 7 7 7 7 7 7 8 8 8 8 8 8 8 8 8 8 8 8 8 7 7 7 6 5 5 5 5 6 6 6 7 8 9
3 2 2 2 2 2 1 1 1 1 1 0 0 1 1 0 0 1 1 1 1 2 2 3 3 4 5 5 5 5 5 5 5 6 6 6 6 7 7 7 7 7 8 7 7 7 7 8 8 8 8 8 8 8 8 7 7 6 6 6 6 6 6 6 6 7 7 8 8
3 2 2 2 2 1 1 1 1 1 1 0 0 0 0 0 1 1 1 1 2 2 3 3 3 4 4 5 5 4 5 5 6 6 7 7 7 7 7 7 7 7 7 6 7 8 9 9 9 9 8 8 8 8 7 7 6 6 6 6 6 6 6 6 6 7 7 8 8
2 2 2 1 1 1 1 1 1 1 0 0 0 0 0 1 1 1 2 2 3 3 3 4 4 4 4 4 4 4 4 5 6 7 7 8 8 8 7 7 6 6 6 6 11 15 17 16 14 11 10 9 8 8 7 6 6 6 6 6 6 6 7 7 7 7 7 8 9
2 2 2 2 2 1 1 1 1 1 0 0 0 1 1 1 1 1 2 2 3 3 4 4 4 4 4 3 4 4 5 5 6 6 7 8 8 8 7 7 6 6 6 9 14 18 21 22 20 18 14 10 9 8 7 6 6 6 6 6 6 6 7 8 8 8 8 8 9
2 2 2 2 2 1 1 1 1 1 0 0 1 1 1 1 1 1 2 3 3 3 3 3 3 4 4 3 4 5 6 6 6 7 7 8 8 8 8 7 6 6 7 12 17 20 22 22 22 21 18 12 9 8 7 7 6 6 6 6 6 6 6 7 8 9 9 9 9
2 2 2 2 2 1 1 1 1 1 1 0 0 0 1 1 1 2 2 3 3 3 3 3 3 3 3 3 4 5 6 6 6 7 7 7 8 8 8 7 7 8 10 16 19 21 22 22 22 22 20 16 11 8 7 7 7 6 6 5 6 6 6 7 8 8 9 9 9
2 2 2 2 2 1 1 1 1 1 0 0 0 1 1 2 2 2 2 3 3 3 3 3 3 3 3 4 5 6 6 6 6 6 6 7 7 8 8 8 8 9 13 18 20 21 22 22 22 22 22 20 13 9 7 6 6 6 5 5 5 5 6 7 7 7 8 9 9
3 2 2 2 1 1 1 1 0 0 0 0 1 1 2 2 2 2 3 3 3 3 3 3 3 4 4 5 5 6 6 6 7 6 6 7 7 8 8 9 8 10 13 18 20 22 22 22 22 22 22 22 16 11 7 6 5 5 5 5 5 6 6 6 7 8 8 9 10
3 3 2 2 1 1 0 0 0 0 1 1 2 2 2 2 2 2 2 2 3 3 3 3 4 5 5 5 5 5 6 7 7 7 7 7 9 9 9 9 9 10 13 18 21 22 22 23 23 23 23 23 17 12 7 6 6 5 5 5 5 6 6 6 6 8 9 10 11
3 3 2 2 1 1 0 0 1 1 2 2 2 2 2 2 2 2 3 3 3 3 4 4 4 5 6 6 5 6 6 7 7 7 7 8 8 8 8 9 9 10 13 19 21 22 23 23 23 23 23 23 18 12 8 6 6 5 5 6 6 6 6 5 6 8 9 10 11
3 3 3 2 1 1 1 1 1 2 2 2 2 2 2 2 3 3 3 3 3 3 3 4 5 5 6 6 6 6 7 7 8 8 8 8 8 8 9 9 8 11 15 20 21 22 23 23 23 23 23 23 17 11 7 6 5 5 5 6 6 6 6 6 6 7 9 10 10
3 3 3 2 1 1 1 1 2 2 2 2 2 2 2 2 3 3 3 3 3 3 3 3 4 4 4 5 5 6 7 8 8 8 8 8 8 8 9 9 8 11 16 20 22 22 23 23 23 23 23 22 15 10 7 6 5 5 5 5 5 5 6 6 7 7 8 9 10
3 3 3 2 1 1 1 2 2 2 2 2 3 3 3 2 3 3 3 3 3 3 3 3 3 4 4 4 5 5 6 8 8 8 8 8 9 9 10 9 9 12 17 20 21 22 22 23 23 23 22 19 12 8 7 7 6 5 5 5 5 6 7 7 7 8 8 9 11
3 3 3 2 1 2 2 2 2 2 2 2 3 3 3 3 3 3 3 3 3 3 3 4 4 4 4 5 5 5 6 7 8 8 9 9 9 10 10 10 9 12 16 19 21 22 22 23 23 23 21 15 9 7 7 7 6 6 6 5 6 7 8 8 8 8 9 9 11
3 3 3 2 2 2 2 2 2 2 2 2 3 3 3 3 3 3 3 2 3 3 4 4 4 4 5 5 5 6 6 7 7 8 9 9 9 10 10 10 10 11 14 18 20 21 22 23 23 22 19 13 9 7 7 6 6 6 6 6 7 7 8 8 8 9 9 10 12
3 3 3 3 2 1 1 1 1 1 2 3 3 3 3 3 3 3 3 2 2 3 4 4 4 5 5 6 6 7 7 7 7 8 9 9 9 9 10 10 9 10 12 17 20 21 22 22 23 22 18 12 9 8 7 6 6 6 7 7 7 8 8 8 8 9 10 12 16
3 3 3 3 2 1 0 0 1 2 3 3 3 3 3 3 3 3 3 2 2 3 3 4 5 6 6 6 7 7 7 7 8 8 8 8 9 10 10 10 9 10 12 16 19 21 22 22 22 22 19 13 10 8 7 6 7 7 7 7 8 9 9 8 8 9 10 13 18
3 3 3 3 2 1 0 1 2 3 3 3 3 3 3 3 3 3 3 2 2 3 3 4 5 6 7 7 7 7 7 8 8 8 8 8 9 10 11 10 9 9 11 15 18 20 21 22 22 22 19 13 10 8 7 7 8 8 8 8 8 9 9 9 9 9 10 12 15
3 3 3 2 1 1 1 2 3 3 3 3 3 3 3 3 3 3 3 2 3 3 4 4 6 6 7 7 7 7 7 8 8 7 7 8 8 9 10 9 9 9 10 12 17 19 21 22 22 22 20 15 11 9 8 7 8 8 9 8 8 8 9 10 10 10 10 11 10
Wind_Direction
88 90 92 92 93 93 91 88 85 84 85 87 88 88 88 89 87 83 80 82 87 88 85 75 58 25 2 357 360 360 360 1 5 9 13 14 8 1 357 357 5 9 7 359 353 349 346 345 341 336 330 324 322 318 315 315 318 320 321 320 318 318 319 321 317 315 313 310 306
87 88 90 92 93 93 91 88 84 81 80 84 90 93 95 95 94 91 87 87 92 92 86 67 44 23 7 358 359 2 5 6 6 6 6 3 357 354 353 352 353 355 355 350 346 343 340 340 340 335 330 326 326 322 316 312 318 321 321 318 315 317 317 317 313 310 309 307 306
87 87 88 90 93 94 94 92 89 86 83 82 85 88 92 95 97 98 97 98 91 83 73 60 38 22 8 354 353 357 4 6 6 4 1 354 349 347 347 345 341 340 338 335 334 333 332 333 333 330 328 326 324 319 315 313 319 322 319 314 314 316 317 314 311 309 309 309 308
87 90 92 94 96 99 101 102 98 95 91 88 79 75 75 79 88 96 98 93 77 70 69 68 45 25 12 2 357 356 357 2 7 5 358 349 343 339 337 336 335 330 324 322 324 324 325 327 327 326 324 321 317 313 310 311 317 317 313 310 312 313 312 309 309 309 309 308 307
87 91 96 100 102 103 105 104 103 101 97 90 79 70 66 68 76 81 81 75 73 73 76 77 58 33 15 10 3 358 354 354 360 360 354 344 336 332 330 332 326 319 313 313 316 317 319 323 324 321 316 310 306 303 302 304 312 312 311 309 310 309 307 306 306 307 307 307 307
92 91 92 95 99 100 100 100 104 104 100 90 83 77 72 71 73 76 78 84 85 78 66 62 52 34 17 9 3 357 350 346 349 351 347 337 330 328 328 326 318 313 310 310 312 313 317 323 323 319 314 311 308 302 301 304 309 311 310 309 307 305 303 302 303 306 308 308 308
98 94 90 90 93 95 96 98 101 100 95 90 88 86 85 82 81 84 88 91 69 51 46 51 45 33 18 8 359 351 343 339 337 338 336 331 326 324 323 319 316 313 311 308 310 313 315 319 322 319 315 314 312 307 304 306 308 308 307 304 303 301 300 299 302 306 309 309 308
92 90 89 88 90 92 95 96 95 93 91 91 95 97 96 92 88 84 78 63 50 43 41 48 46 37 26 12 354 341 334 332 329 327 325 324 322 320 318 316 315 312 308 304 308 310 311 314 318 316 314 315 313 309 306 306 306 304 302 299 298 298 298 299 304 308 310 310 309
86 83 81 80 82 86 90 92 93 93 94 95 100 102 101 95 88 79 69 60 54 43 29 35 38 37 30 11 345 328 321 321 319 318 317 319 319 317 316 315 314 311 307 303 304 307 311 314 316 312 309 309 308 305 303 303 303 300 298 296 296 297 299 301 307 310 311 311 311
92 87 81 78 80 85 88 87 88 91 94 96 97 98 95 90 85 80 78 81 74 46 19 4 21 24 18 355 330 313 307 303 307 310 312 314 314 313 311 310 309 308 306 304 304 308 312 316 313 310 306 304 302 300 299 299 298 297 295 295 298 300 303 306 310 313 314 314 312
98 94 91 90 89 89 87 84 83 84 87 88 87 84 83 82 82 84 86 85 65 41 13 344 14 19 4 331 312 303 299 298 302 307 310 310 308 307 304 303 302 302 302 302 304 309 314 314 310 306 304 301 300 299 298 297 297 296 295 294 298 302 306 310 314 316 316 315 312
98 94 91 92 93 90 87 85 82 80 79 78 77 75 74 77 83 83 79 69 54 31 355 340 7 5 338 312 301 300 300 300 304 306 306 305 303 303 301 301 300 300 300 300 302 307 311 309 306 304 302 300 299 299 298 298 298 297 296 296 300 305 309 313 316 317 317 315 313
97 91 87 86 87 87 86 85 84 80 77 72 70 70 72 73 78 79 76 67 51 21 345 340 349 339 316 301 299 301 302 301 303 303 303 300 300 301 302 301 300 300 299 299 301 304 305 302 300 299 299 299 298 298 297 297 297 297 297 299 303 307 310 313 316 317 316 315 313
92 88 85 84 83 84 85 86 85 81 77 71 68 70 72 71 70 75 77 74 57 18 341 337 336 320 303 293 297 298 299 298 301 301 301 299 299 300 300 300 299 298 298 297 298 300 299 297 295 295 295 296 296 296 295 295 294 294 295 299 303 307 310 313 315 316 317 316 314
88 86 85 83 82 83 85 87 87 83 77 72 68 70 74 73 71 73 75 73 59 21 349 342 327 314 303 295 295 296 297 298 299 300 300 300 300 299 299 298 297 297 296 296 297 296 294 292 291 292 293 294 295 295 295 294 292 291 292 295 301 305 309 311 314 316 316 316 315
90 87 84 83 83 83 84 85 85 82 79 74 69 70 72 76 71 70 68 62 44 12 351 334 315 308 306 303 299 297 297 297 297 298 299 298 298 298 297 297 296 295 295 296 296 295 292 289 289 289 290 292 293 295 294 293 291 290 291 294 298 302 306 309 312 314 315 315 316
92 89 87 86 86 86 85 83 81 80 79 77 73 73 80 83 72 67 64 62 40 360 333 310 301 301 304 303 299 296 294 295 294 293 293 293 293 294 294 294 293 292 292 294 294 294 293 291 290 289 290 291 292 293 293 292 291 291 292 294 297 300 303 307 311 313 315 316 316
94 92 90 89 90 89 87 84 81 81 85 92 98 106 104 97 83 74 65 72 78 341 308 298 293 293 294 294 292 289 287 286 287 287 286 286 287 289 290 290 290 290 291 291 291 291 292 292 292 293 293 293 292 291 291 291 290 290 291 293 295 298 301 306 310 313 316 316 315
98 95 92 93 94 92 90 88 88 94 115 159 167 155 120 101 97 78 41 352 281 254 276 289 292 291 287 284 285 284 282 278 281 283 284 285 287 288 289 289 290 290 290 290 290 290 290 292 294 295 296 296 294 293 291 289 289 290 291 292 295 298 302 307 311 314 316 316 314
101 100 99 100 99 98 97 100 110 134 167 184 164 136 104 99 96 74 21 310 287 264 264 282 290 290 288 284 285 285 283 278 281 284 285 287 289 289 289 289 290 291 290 290 290 291 292 294 295 296 296 295 294 293 291 290 289 289 289 291 295 299 305 310 313 315 316 315 313
106 107 109 107 104 105 110 123 143 161 169 166 140 121 102 88 79 70 298 279 279 280 281 283 285 285 286 285 286 285 284 284 285 286 287 289 290 289 289 290 291 292 293 293 293 294 295 295 295 295 294 292 291 290 290 290 290 290 291 293 297 302 307 312 315 316 316 314 312
113 114 114 112 110 113 120 136 149 153 147 137 126 110 90 68 45 292 262 270 294 297 291 284 280 279 278 279 281 283 285 289 290 289 288 290 291 291 291 292 294 296 297 297 297 297 296 295 293 292 291 291 290 289 289 290 292 294 296 299 302 306 310 314 315 315 314 313 309
118 117 115 113 114 116 120 128 126 120 106 100 91 80 68 45 340 309 302 315 315 302 291 282 277 275 274 274 277 282 289 296 297 296 295 294 294 295 296 297 299 299 298 298 297 297 297 296 295 293 293 293 294 294 294 295 296 299 302 305 308 310 313 315 316 315 313 310 306
119 116 116 113 113 116 117 117 105 96 88 79 79 72 53 15 345 335 334 328 313 300 292 286 281 278 277 278 281 286 292 298 301 302 301 301 300 300 301 302 301 299 298 297 299 302 304 305 304 304 303 303 303 303 303 302 303 304 306 308 310 312 313 314 314 313 310 307 304
121 122 121 118 115 114 112 110 110 115 127 155 98 67 41 7 348 340 332 322 308 299 293 290 287 286 286 288 291 293 296 298 299 301 303 304 303 303 304 305 303 302 300 298 303 307 311 313 314 313 313 312 310 309 307 306 306 306 307 309 312 313 314 314 312 309 306 304 305
130 131 132 126 118 112 108 115 133 144 154 130 59 36 19 350 341 334 325 314 303 297 294 292 292 293 296 297 301 302 302 299 299 300 301 304 305 305 306 306 306 305 303 304 309 313 315 316 316 316 315 313 312 311 310 309 307 307 307 309 311 312 312 313 311 308 306 305 308
136 134 131 120 106 101 104 127 131 124 101 65 45 18 346 331 344 338 323 306 299 296 296 295 293 295 299 302 305 304 303 301 301 301 300 301 303 305 305 305 306 306 307 310 313 315 317 317 317 317 317 314 313 312 311 310 309 309 308 309 308 308 308 306 306 307 308 309 312
136 131 119 100 89 87 90 101 90 82 74 58 30 356 346 357 353 336 318 305 303 303 302 298 294 296 301 306 304 301 300 301 301 301 301 302 302 302 303 304 306 307 310 313 315 317 318 318 318 318 318 317 314 312 310 308 309 309 309 307 306 304 302 301 304 307 310 312 313
132 120 105 90 85 78 73 72 79 80 86 75 22 16 15 10 351 332 317 310 309 306 302 296 299 305 310 307 303 301 301 302 302 302 304 305 304 303 303 304 305 308 311 314 316 317 318 318 318 318 318 319 316 314 311 309 308 307 307 304 302 300 299 301 305 308 311 312 313
122 112 102 94 89 78 65 70 91 115 81 51 38 30 19 3 344 326 313 305 299 293 290 293 305 310 308 303 303 304 304 303 303 305 306 306 306 306 306 307 308 309 312 315 316 317 318 319 319 318 318 319 316 313 309 308 306 304 303 300 297 296 297 301 305 309 312 314 314
114 108 103 99 90 81 61 27 46 51 45 44 36 26 11 350 325 307 293 286 283 287 292 303 309 307 303 300 302 303 303 303 305 306 306 306 306 307 307 309 309 309 311 315 317 318 319 319 319 319 319 318 317 315 311 309 305 301 297 295 293 295 298 302 307 312 315 316 315
111 107 104 98 90 77 27 356 30 43 44 41 31 15 353 322 296 281 273 273 285 297 307 314 311 308 305 305 304 304 304 305 306 307 307 307 307 308 309 310 310 310 312 315 317 319 319 320 320 319 319 319 317 315 312 308 302 297 293 291 293 297 302 308 313 316 317 316 314
110 106 102 96 87 61 13 20 36 41 40 33 18 356 328 303 291 287 285 284 291 300 306 308 307 306 305 306 305 306 306 306 307 307 307 308 309 309 310 311 311 311 314 317 318 320 321 321 321 320 320 320 318 316 313 305 300 296 296 297 302 308 313 315 317 317 315 313 310
108 103 98 94 86 57 28 28 35 38 33 18 355 332 311 299 299 298 295 292 292 293 295 295 295 295 295 298 300 303 305 307 308 309 310 310 311 311 312 313 311 313 315 317 319 321 322 322 322 322 321 321 319 316 310 302 298 298 300 307 314 320 322 321 318 314 312 309 306
109 105 100 94 81 56 38 33 34 32 24 2 332 313 300 289 286 285 286 289 295 297 295 291 289 289 291 294 297 301 304 308 310 311 312 312 313 313 313 312 309 312 315 318 321 323 324 324 324 323 323 322 319 314 307 303 303 305 310 318 323 324 324 320 317 313 309 306 302
113 110 106 94 72 50 40 37 33 23 6 335 311 300 292 284 276 273 277 288 298 300 297 294 296 298 300 301 302 304 306 308 310 312 313 315 316 315 313 312 310 313 317 321 323 325 326 326 326 325 324 322 317 311 309 311 315 320 324 328 327 325 323 319 314 311 308 305 300
120 116 109 95 72 52 40 39 29 6 332 303 290 283 280 278 276 276 279 292 299 299 296 295 298 300 301 302 304 305 306 307 310 313 314 316 316 315 313 313 312 314 318 323 326 327 328 328 327 326 325 321 318 316 318 322 325 327 328 327 324 322 320 316 313 311 308 303 298
122 116 108 98 83 62 40 34 10 320 291 280 272 267 267 270 276 279 281 287 291 291 293 295 298 298 299 300 302 304 305 307 311 313 314 315 315 314 314 314 315 317 320 325 328 329 330 329 328 328 327 323 323 325 327 329 329 329 328 326 322 321 319 316 314 311 306 300 298
118 112 107 103 101 95 70 344 283 270 267 266 268 269 270 270 273 275 276 276 273 279 285 292 295 297 299 303 307 309 310 310 311 312 313 312 312 314 316 317 317 318 321 326 329 330 331 331 330 330 330 327 329 330 331 330 329 328 328 326 323 320 318 317 315 311 304 298 298
111 106 105 107 116 129 174 252 256 254 253 256 266 270 270 268 269 272 274 273 269 273 281 288 293 296 301 308 311 312 312 312 312 311 311 310 312 315 318 318 318 319 321 326 329 331 332 332 332 332 332 331 333 333 332 330 328 328 328 327 324 322 319 318 314 308 302 297 299
102 100 101 107 127 158 207 245 253 253 252 252 258 260 262 265 268 273 277 281 281 283 287 291 295 299 304 311 313 313 312 311 311 310 310 311 313 316 318 318 318 318 321 325 330 332 333 334 334 334 334 333 333 333 332 331 329 328 328 326 324 321 318 316 311 304 299 297 299